This is the latest recevied weather packets stored in our database for station/object JE7UPL-13. If no packets are shown the sender has not sent any weather packets the latest 10 day(s).
| Time | Temp. | Humidity | Pressure | Rain* | Wind** | Luminosity | Snow |
|---|---|---|---|---|---|---|---|
| 1777931105 | 10° C | 70% | 1012.3 hPa | 0 mm | - | - | - |
| 1777930205 | 8.89° C | 73% | 1011.9 hPa | 0 mm | - | - | - |
| 1777929305 | 8.89° C | 74% | 1011.9 hPa | 0 mm | - | - | - |
| 1777928406 | 8.89° C | 71% | 1011.7 hPa | 0 mm | - | - | - |
| 1777927505 | 10.56° C | 66% | 1011.6 hPa | 0 mm | - | - | - |
| 1777926605 | 10° C | 65% | 1010.9 hPa | 0 mm | - | - | - |
| 1777925705 | 8.89° C | 72% | 1010.7 hPa | 0 mm | - | - | - |
| 1777924805 | 8.33° C | 71% | 1010.6 hPa | 0 mm | - | - | - |
| 1777923905 | 8.33° C | 69% | 1010.2 hPa | 0 mm | - | - | - |
| 1777923005 | 8.33° C | 69% | 1009.9 hPa | 0 mm | - | - | - |
| 1777922105 | 8.33° C | 68% | 1009.6 hPa | 0 mm | - | - | - |
| 1777921206 | 8.33° C | 66% | 1009.3 hPa | 0 mm | - | - | - |
| 1777920306 | 8.33° C | 64% | 1009.2 hPa | 0 mm | - | - | - |
| 1777919406 | 8.33° C | 65% | 1008.8 hPa | 0 mm | - | - | - |
| 1777918505 | 8.33° C | 66% | 1008.5 hPa | 0 mm | - | - | - |
| 1777917606 | 8.33° C | 70% | 1007.8 hPa | 0 mm | - | - | - |
| 1777916705 | 8.33° C | 73% | 1007.4 hPa | 0 mm | - | - | - |
| 1777915805 | 8.33° C | 73% | 1006.9 hPa | 0 mm | - | - | - |
| 1777914905 | 8.33° C | 73% | 1006.5 hPa | 0 mm | - | - | - |
| 1777914005 | 8.33° C | 73% | 1006.1 hPa | 0 mm | - | - | - |
| 1777913105 | 8.33° C | 74% | 1005.7 hPa | 0 mm | - | - | - |
| 1777912205 | 8.33° C | 77% | 1005.1 hPa | 0 mm | - | - | - |
| 1777911306 | 8.33° C | 80% | 1004.6 hPa | 0 mm | - | - | - |
| 1777910405 | 7.78° C | 83% | 1004.2 hPa | 0 mm | - | - | - |
| 1777909505 | 7.78° C | 85% | 1003.8 hPa | 0 mm | - | - | - |
* Rain latest hour (hover to see other rain measurements)
** Current wind speed in m/s (hover to see current wind gust speed)